Year,Month,Day,Hour,Minute,Value (Times are PST for temperature in C)
2012,10,22,00,00,7.30
2012,10,22,00,01,7.30
2012,10,22,00,02,7.30
2012,10,22,00,03,7.30
2012,10,22,00,04,7.30
2012,10,22,00,05,7.30
2012,10,22,00,06,7.30
2012,10,22,00,07,7.30
2012,10,22,00,08,7.30
2012,10,22,00,09,7.30
2012,10,22,00,10,7.30
2012,10,22,00,11,7.30
2012,10,22,00,12,7.30
2012,10,22,00,13,7.30
2012,10,22,00,14,7.30
2012,10,22,00,15,7.30
2012,10,22,00,16,7.30
2012,10,22,00,17,7.30
2012,10,22,00,18,7.30
2012,10,22,00,19,7.30
2012,10,22,00,20,7.30
2012,10,22,00,21,7.30
2012,10,22,00,22,7.30
2012,10,22,00,23,7.30
2012,10,22,00,24,7.30
2012,10,22,00,25,7.30
2012,10,22,00,26,7.30
2012,10,22,00,27,7.30
2012,10,22,00,28,7.30
2012,10,22,00,29,7.30
2012,10,22,00,30,7.30
2012,10,22,00,31,7.30
2012,10,22,00,32,7.20
2012,10,22,00,33,7.20
2012,10,22,00,34,7.20
2012,10,22,00,35,7.20
2012,10,22,00,36,7.10
2012,10,22,00,37,7.10
2012,10,22,00,38,7.10
2012,10,22,00,39,7.10
2012,10,22,00,40,7.10
2012,10,22,00,41,7.10
2012,10,22,00,42,7.00
2012,10,22,00,43,7.00
2012,10,22,00,44,7.00
2012,10,22,00,45,7.00
2012,10,22,00,46,7.00
2012,10,22,00,47,6.90
2012,10,22,00,48,6.90
2012,10,22,00,49,6.90
2012,10,22,00,50,6.90
2012,10,22,00,51,6.90
2012,10,22,00,52,6.80
2012,10,22,00,53,6.80
2012,10,22,00,54,6.80
2012,10,22,00,55,6.80
2012,10,22,00,56,6.80
2012,10,22,00,57,6.80
2012,10,22,00,58,6.80
2012,10,22,00,59,6.80
2012,10,22,01,00,6.80
2012,10,22,01,01,6.80
2012,10,22,01,02,6.80
2012,10,22,01,03,6.80
2012,10,22,01,04,6.80
2012,10,22,01,05,6.70
2012,10,22,01,06,6.70
2012,10,22,01,07,6.70
2012,10,22,01,08,6.70
2012,10,22,01,09,6.70
2012,10,22,01,10,6.70
2012,10,22,01,11,6.70
2012,10,22,01,12,6.70
2012,10,22,01,13,6.70
2012,10,22,01,14,6.70
2012,10,22,01,15,6.70
2012,10,22,01,16,6.70
2012,10,22,01,17,6.70
2012,10,22,01,18,6.70
2012,10,22,01,19,6.70
2012,10,22,01,20,6.60
2012,10,22,01,21,6.60
2012,10,22,01,22,6.60
2012,10,22,01,23,6.50
2012,10,22,01,24,6.40
2012,10,22,01,25,6.40
2012,10,22,01,26,6.40
2012,10,22,01,27,6.40
2012,10,22,01,28,6.40
2012,10,22,01,29,6.30
2012,10,22,01,30,6.30
2012,10,22,01,31,6.30
2012,10,22,01,32,6.20
2012,10,22,01,33,6.20
2012,10,22,01,34,6.20
2012,10,22,01,35,6.20
2012,10,22,01,36,6.20
2012,10,22,01,37,6.20
2012,10,22,01,38,6.20
2012,10,22,01,39,6.20
2012,10,22,01,40,6.20
2012,10,22,01,41,6.20
2012,10,22,01,42,6.20
2012,10,22,01,43,6.10
2012,10,22,01,44,6.10
2012,10,22,01,45,6.20
2012,10,22,01,46,6.10
2012,10,22,01,47,6.10
2012,10,22,01,48,6.10
2012,10,22,01,49,6.10
2012,10,22,01,50,6.10
2012,10,22,01,51,6.00
2012,10,22,01,52,6.00
2012,10,22,01,53,6.00
2012,10,22,01,54,6.00
2012,10,22,01,55,6.00
2012,10,22,01,56,6.00
2012,10,22,01,57,6.00
2012,10,22,01,58,6.00
2012,10,22,01,59,6.00
2012,10,22,02,00,6.00
2012,10,22,02,01,6.00
2012,10,22,02,02,6.10
2012,10,22,02,03,6.10
2012,10,22,02,04,6.10
2012,10,22,02,05,6.10
2012,10,22,02,06,6.00
2012,10,22,02,07,6.00
2012,10,22,02,08,6.00
2012,10,22,02,09,6.00
2012,10,22,02,10,6.00
2012,10,22,02,11,6.00
2012,10,22,02,12,5.90
2012,10,22,02,13,5.90
2012,10,22,02,14,5.90
2012,10,22,02,15,5.90
2012,10,22,02,16,5.90
2012,10,22,02,17,5.90
2012,10,22,02,18,5.90
2012,10,22,02,19,5.90
2012,10,22,02,20,5.90
2012,10,22,02,21,5.90
2012,10,22,02,22,5.90
2012,10,22,02,23,5.80
2012,10,22,02,24,5.80
2012,10,22,02,25,5.80
2012,10,22,02,26,5.80
2012,10,22,02,27,5.80
2012,10,22,02,28,5.80
2012,10,22,02,29,5.80
2012,10,22,02,30,5.80
2012,10,22,02,31,5.80
2012,10,22,02,32,5.80
2012,10,22,02,33,5.80
2012,10,22,02,34,5.80
2012,10,22,02,35,5.80
2012,10,22,02,36,5.80
2012,10,22,02,37,5.70
2012,10,22,02,38,5.70
2012,10,22,02,39,5.70
2012,10,22,02,40,5.70
2012,10,22,02,41,5.70
2012,10,22,02,42,5.70
2012,10,22,02,43,5.70
2012,10,22,02,44,5.80
2012,10,22,02,45,5.80
2012,10,22,02,46,5.80
2012,10,22,02,47,5.70
2012,10,22,02,48,5.80
2012,10,22,02,49,5.80
2012,10,22,02,50,5.80
2012,10,22,02,51,5.90
2012,10,22,02,52,5.90
2012,10,22,02,53,5.90
2012,10,22,02,54,5.90
2012,10,22,02,55,5.90
2012,10,22,02,56,5.90
2012,10,22,02,57,5.90
2012,10,22,02,58,5.90
2012,10,22,02,59,5.90
2012,10,22,03,00,5.90
2012,10,22,03,01,5.90
2012,10,22,03,02,5.80
2012,10,22,03,03,5.80
2012,10,22,03,04,5.80
2012,10,22,03,05,5.80
2012,10,22,03,06,5.80
2012,10,22,03,07,5.70
2012,10,22,03,08,5.80
2012,10,22,03,09,5.70
2012,10,22,03,10,5.70
2012,10,22,03,11,5.70
2012,10,22,03,12,5.70
2012,10,22,03,13,5.70
2012,10,22,03,14,5.70
2012,10,22,03,15,5.70
2012,10,22,03,16,5.70
2012,10,22,03,17,5.70
2012,10,22,03,18,5.70
2012,10,22,03,19,5.70
2012,10,22,03,20,5.70
2012,10,22,03,21,5.70
2012,10,22,03,22,5.70
2012,10,22,03,23,5.70
2012,10,22,03,24,5.70
2012,10,22,03,25,5.70
2012,10,22,03,26,5.70
2012,10,22,03,27,5.70
2012,10,22,03,28,5.70
2012,10,22,03,29,5.70
2012,10,22,03,30,5.70
2012,10,22,03,31,5.70
2012,10,22,03,32,5.70
2012,10,22,03,33,5.70
2012,10,22,03,34,5.70
2012,10,22,03,35,5.70
2012,10,22,03,36,5.70
2012,10,22,03,37,5.70
2012,10,22,03,38,5.70
2012,10,22,03,39,5.70
2012,10,22,03,40,5.70
2012,10,22,03,41,5.70
2012,10,22,03,42,5.70
2012,10,22,03,43,5.70
2012,10,22,03,44,5.70
2012,10,22,03,45,5.70
2012,10,22,03,46,5.70
2012,10,22,03,47,5.70
2012,10,22,03,48,5.60
2012,10,22,03,49,5.60
2012,10,22,03,50,5.60
2012,10,22,03,51,5.60
2012,10,22,03,52,5.60
2012,10,22,03,53,5.50
2012,10,22,03,54,5.50
2012,10,22,03,55,5.50
2012,10,22,03,56,5.50
2012,10,22,03,57,5.50
2012,10,22,03,58,5.50
2012,10,22,03,59,5.40
2012,10,22,04,00,5.40
2012,10,22,04,01,5.40
2012,10,22,04,02,5.40
2012,10,22,04,03,5.40
2012,10,22,04,04,5.40
2012,10,22,04,05,5.40
2012,10,22,04,06,5.40
2012,10,22,04,07,5.40
2012,10,22,04,08,5.40
2012,10,22,04,09,5.40
2012,10,22,04,10,5.40
2012,10,22,04,11,5.40
2012,10,22,04,12,5.40
2012,10,22,04,13,5.40
2012,10,22,04,14,5.40
2012,10,22,08,45,7.30
2012,10,22,08,46,7.30
2012,10,22,08,47,7.30
2012,10,22,08,48,7.30
2012,10,22,08,49,7.40
2012,10,22,08,50,7.40
2012,10,22,08,51,7.30
2012,10,22,08,52,7.30
2012,10,22,08,53,7.40
2012,10,22,08,54,7.40
2012,10,22,08,55,7.40
2012,10,22,08,56,7.40
2012,10,22,08,57,7.30
2012,10,22,08,58,7.30
2012,10,22,08,59,7.30
2012,10,22,09,00,7.40
2012,10,22,09,01,7.40
2012,10,22,09,02,7.40
2012,10,22,09,03,7.50
2012,10,22,09,04,7.50
2012,10,22,09,05,7.50
2012,10,22,09,06,7.50
2012,10,22,09,07,7.40
2012,10,22,09,08,7.40
2012,10,22,09,09,7.40
2012,10,22,09,10,7.40
2012,10,22,09,11,7.50
2012,10,22,09,12,7.50
2012,10,22,09,13,7.50
2012,10,22,09,14,7.50
2012,10,22,09,15,7.50
2012,10,22,09,16,7.50
2012,10,22,09,17,7.50
2012,10,22,09,18,7.50
2012,10,22,09,19,7.50
2012,10,22,09,20,7.50
2012,10,22,09,21,7.60
2012,10,22,09,22,7.50
2012,10,22,09,23,7.50
2012,10,22,09,24,7.50
2012,10,22,09,25,7.60
2012,10,22,09,26,7.60
2012,10,22,09,27,7.60
2012,10,22,09,28,7.70
2012,10,22,09,29,7.70
2012,10,22,09,30,7.70
2012,10,22,09,31,7.60
2012,10,22,09,32,7.60
2012,10,22,09,33,7.60
2012,10,22,09,34,7.60
2012,10,22,09,35,7.60
2012,10,22,09,36,7.60
2012,10,22,09,37,7.60
2012,10,22,09,38,7.60
2012,10,22,09,39,7.60
2012,10,22,09,40,7.60
2012,10,22,09,41,7.60
2012,10,22,09,42,7.70
2012,10,22,09,43,7.70
2012,10,22,09,44,7.60
2012,10,22,09,45,7.60
2012,10,22,09,46,7.60
2012,10,22,09,47,7.70
2012,10,22,09,48,7.70
2012,10,22,09,49,7.70
2012,10,22,09,50,7.70
2012,10,22,09,51,7.70
2012,10,22,09,52,7.70
2012,10,22,09,53,7.70
2012,10,22,09,54,7.70
2012,10,22,09,55,7.60
2012,10,22,09,56,7.60
2012,10,22,09,57,7.60
2012,10,22,09,58,7.60
2012,10,22,09,59,7.60
2012,10,22,10,00,7.60
2012,10,22,10,01,7.60
2012,10,22,10,02,7.60
2012,10,22,10,03,7.60
2012,10,22,10,04,7.60
2012,10,22,10,05,7.60
2012,10,22,10,06,7.60
2012,10,22,10,07,7.60
2012,10,22,10,08,7.60
2012,10,22,10,09,7.60
2012,10,22,10,10,7.50
2012,10,22,10,11,7.50
2012,10,22,10,12,7.50
2012,10,22,10,13,7.50
2012,10,22,10,14,7.40
2012,10,22,10,15,7.40
2012,10,22,10,16,7.40
2012,10,22,10,17,7.40
2012,10,22,10,18,7.40
2012,10,22,10,19,7.40
2012,10,22,10,20,7.40
2012,10,22,10,21,7.40
2012,10,22,10,22,7.40
2012,10,22,10,23,7.40
2012,10,22,10,24,7.40
2012,10,22,10,25,7.50
2012,10,22,10,26,7.50
2012,10,22,10,27,7.50
2012,10,22,10,28,7.50
2012,10,22,10,29,7.50
2012,10,22,10,30,7.50
2012,10,22,10,31,7.60
2012,10,22,10,32,7.60
2012,10,22,10,33,7.50
2012,10,22,10,34,7.50
2012,10,22,10,35,7.50
2012,10,22,10,36,7.50
2012,10,22,10,37,7.50
2012,10,22,10,38,7.50
2012,10,22,10,39,7.50
2012,10,22,10,40,7.50
2012,10,22,10,41,7.50
2012,10,22,10,42,7.60
2012,10,22,10,43,7.60
2012,10,22,10,44,7.60
2012,10,22,10,45,7.60
2012,10,22,10,46,7.60
2012,10,22,10,47,7.60
2012,10,22,10,48,7.60
2012,10,22,10,49,7.60
2012,10,22,10,50,7.60
2012,10,22,10,51,7.60
2012,10,22,10,52,7.60
2012,10,22,10,53,7.70
2012,10,22,10,54,7.70
2012,10,22,10,55,7.70
2012,10,22,10,56,7.70
2012,10,22,10,57,7.80
2012,10,22,10,58,7.80
2012,10,22,10,59,7.80
2012,10,22,11,00,7.80
2012,10,22,11,01,7.70
2012,10,22,11,02,7.70
2012,10,22,11,03,7.70
2012,10,22,11,04,7.70
2012,10,22,11,05,7.80
2012,10,22,11,06,7.80
2012,10,22,11,07,7.80
2012,10,22,11,08,7.80
2012,10,22,11,09,7.80
2012,10,22,11,10,7.80
2012,10,22,11,11,7.80
2012,10,22,11,12,7.80
2012,10,22,11,13,7.80
2012,10,22,11,14,7.80
2012,10,22,11,15,7.80
2012,10,22,11,16,7.80
2012,10,22,11,17,7.80
2012,10,22,11,18,7.80
2012,10,22,11,19,7.80
2012,10,22,11,20,7.80
2012,10,22,11,21,7.70
2012,10,22,11,22,7.70
2012,10,22,11,23,7.70
2012,10,22,11,24,7.70
2012,10,22,11,25,7.70
2012,10,22,11,26,7.70
2012,10,22,11,27,7.70
2012,10,22,11,28,7.70
2012,10,22,11,29,7.70
2012,10,22,11,30,7.70
2012,10,22,11,31,7.70
2012,10,22,11,32,7.70
2012,10,22,11,33,7.70
2012,10,22,11,34,7.70
2012,10,22,11,35,7.70
2012,10,22,11,36,7.60
2012,10,22,11,37,7.70
2012,10,22,11,38,7.70
2012,10,22,11,39,7.70
2012,10,22,11,40,7.70
2012,10,22,11,41,7.80
2012,10,22,11,42,7.80
2012,10,22,11,43,7.80
2012,10,22,11,44,7.70
2012,10,22,11,45,7.70
2012,10,22,11,46,7.70
2012,10,22,11,47,7.70
2012,10,22,11,48,7.70
2012,10,22,11,49,7.70
2012,10,22,11,50,7.80
2012,10,22,11,51,7.80
2012,10,22,11,52,7.80
2012,10,22,11,53,7.80
2012,10,22,11,54,7.80
2012,10,22,11,55,7.80
2012,10,22,11,56,7.80
2012,10,22,11,57,7.80
2012,10,22,11,58,7.80
2012,10,22,11,59,7.80
2012,10,22,12,00,7.80
2012,10,22,12,01,7.80
2012,10,22,12,02,7.90
2012,10,22,12,03,7.90
2012,10,22,12,04,7.90
2012,10,22,12,05,7.90
2012,10,22,12,06,7.90
2012,10,22,12,07,7.90
2012,10,22,12,08,7.90
2012,10,22,12,09,7.90
2012,10,22,12,10,8.00
2012,10,22,12,11,8.00
2012,10,22,12,12,8.00
2012,10,22,12,13,8.10
2012,10,22,12,14,8.10
2012,10,22,12,15,8.10
2012,10,22,12,16,8.10
2012,10,22,12,17,8.10
2012,10,22,12,18,8.20
2012,10,22,12,19,8.20
2012,10,22,12,20,8.20
2012,10,22,12,21,8.20
2012,10,22,12,22,8.30
2012,10,22,12,23,8.30
2012,10,22,12,24,8.30
2012,10,22,12,25,8.30
2012,10,22,12,26,8.30
2012,10,22,12,27,8.40
2012,10,22,12,28,8.40
2012,10,22,12,29,8.50
2012,10,22,12,30,8.50
2012,10,22,12,31,8.60
2012,10,22,12,32,8.60
2012,10,22,12,33,8.60
2012,10,22,12,34,8.70
2012,10,22,12,35,8.70
2012,10,22,12,36,8.70
2012,10,22,12,37,8.70
2012,10,22,12,38,8.60
2012,10,22,12,39,8.60
2012,10,22,12,40,8.60
2012,10,22,12,41,8.70
2012,10,22,12,42,8.70
2012,10,22,12,43,8.70
2012,10,22,12,44,8.70
2012,10,22,12,45,8.70
2012,10,22,12,46,8.60
2012,10,22,12,47,8.50
2012,10,22,12,48,8.50
2012,10,22,12,49,8.50
2012,10,22,12,50,8.50
2012,10,22,12,51,8.60
2012,10,22,12,52,8.60
2012,10,22,12,53,8.60
2012,10,22,12,54,8.60
2012,10,22,12,55,8.60
2012,10,22,12,56,8.60
2012,10,22,12,57,8.70
2012,10,22,12,58,8.70
2012,10,22,12,59,8.70
2012,10,22,13,00,8.70
2012,10,22,13,01,8.70
2012,10,22,13,02,8.70
2012,10,22,13,03,8.70
2012,10,22,13,04,8.70
2012,10,22,13,05,8.70
2012,10,22,13,06,8.70
2012,10,22,13,07,8.70
2012,10,22,13,08,8.70
2012,10,22,13,09,8.70
2012,10,22,13,10,8.70
2012,10,22,13,11,8.70
2012,10,22,13,12,8.70
2012,10,22,13,13,8.70
2012,10,22,13,14,8.70
2012,10,22,13,15,8.70
2012,10,22,13,16,8.80
2012,10,22,13,17,8.70
2012,10,22,13,18,8.70
2012,10,22,13,19,8.70
2012,10,22,13,20,8.70
2012,10,22,13,21,8.70
2012,10,22,13,22,8.80
2012,10,22,13,23,8.80
2012,10,22,13,24,8.80
2012,10,22,13,25,8.80
2012,10,22,13,26,8.80
2012,10,22,13,27,8.90
2012,10,22,13,28,8.90
2012,10,22,13,29,8.90
2012,10,22,13,30,8.80
2012,10,22,13,31,8.80
2012,10,22,13,32,8.90
2012,10,22,13,33,8.90
2012,10,22,13,34,8.90
2012,10,22,13,35,8.90
2012,10,22,13,36,8.80
2012,10,22,13,37,8.80
2012,10,22,13,38,8.90
2012,10,22,13,39,8.80
2012,10,22,13,40,8.80
2012,10,22,13,41,8.80
2012,10,22,13,42,8.80
2012,10,22,13,43,8.80
2012,10,22,13,44,8.90
2012,10,22,13,45,8.90
2012,10,22,13,46,8.80
2012,10,22,13,47,8.80
2012,10,22,13,48,8.80
2012,10,22,13,49,8.80
2012,10,22,13,50,8.80
2012,10,22,13,51,8.80
2012,10,22,13,52,8.80
2012,10,22,13,53,8.90
2012,10,22,13,54,8.90
2012,10,22,13,55,8.90
2012,10,22,13,56,8.90
2012,10,22,13,57,8.90
2012,10,22,13,58,8.90
2012,10,22,13,59,8.90
2012,10,22,14,00,8.90
2012,10,22,14,01,8.90
2012,10,22,14,02,8.90
2012,10,22,14,03,8.80
2012,10,22,14,04,8.90
2012,10,22,14,05,8.90
2012,10,22,14,06,8.90
2012,10,22,14,07,8.90
2012,10,22,14,08,8.90
2012,10,22,14,09,8.90
2012,10,22,14,10,8.90
2012,10,22,14,11,8.90
2012,10,22,14,12,9.00
2012,10,22,14,13,9.00
2012,10,22,14,14,9.10
2012,10,22,14,15,9.10
2012,10,22,14,16,9.10
2012,10,22,14,17,9.10
2012,10,22,14,18,9.10
2012,10,22,14,19,9.10
2012,10,22,14,20,9.10
2012,10,22,14,21,9.10
2012,10,22,14,22,9.10
2012,10,22,14,23,9.10
2012,10,22,14,24,9.10
2012,10,22,14,25,9.10
2012,10,22,14,26,9.00
2012,10,22,14,27,9.00
2012,10,22,14,28,9.00
2012,10,22,14,29,9.00
2012,10,22,14,30,9.00
2012,10,22,14,31,9.00
2012,10,22,14,32,8.90
2012,10,22,14,33,8.90
2012,10,22,14,34,8.90
2012,10,22,14,35,8.90
2012,10,22,14,36,8.90
2012,10,22,14,37,8.90
2012,10,22,14,38,9.00
2012,10,22,14,39,9.00
2012,10,22,14,40,9.00
2012,10,22,14,41,9.00
2012,10,22,14,42,9.00
2012,10,22,14,43,9.00
2012,10,22,14,44,9.00
2012,10,22,14,45,9.00
2012,10,22,14,46,9.00
2012,10,22,14,47,9.00
2012,10,22,14,48,9.00
2012,10,22,14,49,9.00
2012,10,22,14,50,9.00
2012,10,22,14,51,9.00
2012,10,22,14,52,9.00
2012,10,22,14,53,9.10
2012,10,22,14,54,9.00
2012,10,22,14,55,9.00
2012,10,22,14,56,9.00
2012,10,22,14,57,9.00
2012,10,22,14,58,8.90
2012,10,22,14,59,8.90
2012,10,22,15,00,8.90
2012,10,22,15,01,8.90
2012,10,22,15,02,8.80
2012,10,22,15,03,8.80
2012,10,22,15,04,8.80
2012,10,22,15,05,8.80
2012,10,22,15,06,8.80
2012,10,22,15,07,8.80
2012,10,22,15,08,8.80
2012,10,22,15,09,8.80
2012,10,22,15,10,8.80
2012,10,22,15,11,8.80
2012,10,22,15,12,8.70
2012,10,22,15,13,8.70
2012,10,22,15,14,8.70
2012,10,22,15,15,8.70
2012,10,22,15,16,8.70
2012,10,22,15,17,8.80
2012,10,22,15,18,8.80
2012,10,22,15,19,8.80
2012,10,22,15,20,8.80
2012,10,22,15,21,8.80
2012,10,22,15,22,8.80
2012,10,22,15,23,8.80
2012,10,22,15,24,8.80
2012,10,22,15,25,8.80
2012,10,22,15,26,8.80
2012,10,22,15,27,8.80
2012,10,22,15,28,8.80
2012,10,22,15,29,8.80
2012,10,22,15,30,8.70
2012,10,22,15,31,8.70
2012,10,22,15,32,8.60
2012,10,22,15,33,8.60
2012,10,22,15,34,8.60
2012,10,22,15,35,8.60
2012,10,22,15,36,8.60
2012,10,22,15,37,8.60
2012,10,22,15,38,8.60
2012,10,22,15,39,8.60
2012,10,22,15,40,8.50
2012,10,22,15,41,8.50
2012,10,22,15,42,8.40
2012,10,22,15,43,8.40
2012,10,22,15,44,8.40
2012,10,22,15,45,8.40
2012,10,22,15,46,8.30
2012,10,22,15,47,8.30
2012,10,22,15,48,8.30
2012,10,22,15,49,8.30
2012,10,22,15,50,8.30
2012,10,22,15,51,8.20
2012,10,22,15,52,8.20
2012,10,22,15,53,8.20
2012,10,22,15,54,8.10
2012,10,22,15,55,8.10
2012,10,22,15,56,8.10
2012,10,22,15,57,8.10
2012,10,22,15,58,8.00
2012,10,22,15,59,8.00
2012,10,22,16,00,8.00
2012,10,22,16,01,8.00
2012,10,22,16,02,8.00
2012,10,22,16,03,7.90
2012,10,22,16,04,7.90
2012,10,22,16,05,7.90
2012,10,22,16,06,7.90
2012,10,22,16,07,7.90
2012,10,22,16,08,7.90
2012,10,22,16,09,7.90
2012,10,22,16,10,7.90
2012,10,22,16,11,7.90
2012,10,22,16,12,7.90
2012,10,22,16,13,7.90
2012,10,22,16,14,7.80
2012,10,22,16,15,7.80
2012,10,22,16,16,7.80
2012,10,22,16,17,7.80
2012,10,22,16,18,7.80
2012,10,22,16,19,7.80
2012,10,22,16,20,7.80
2012,10,22,16,21,7.80
2012,10,22,16,22,7.80
2012,10,22,16,23,7.80
2012,10,22,16,24,7.80
2012,10,22,16,25,7.70
2012,10,22,16,26,7.70
2012,10,22,16,27,7.70
2012,10,22,16,28,7.70
2012,10,22,16,29,7.60
2012,10,22,16,30,7.60
2012,10,22,16,31,7.60
2012,10,22,16,32,7.60
2012,10,22,16,33,7.50
2012,10,22,16,34,7.50
2012,10,22,16,35,7.50
2012,10,22,16,36,7.50
2012,10,22,16,37,7.40
2012,10,22,16,38,7.40
2012,10,22,16,39,7.30
2012,10,22,16,40,7.30
2012,10,22,16,41,7.30
2012,10,22,16,42,7.30
2012,10,22,16,43,7.30
2012,10,22,16,44,7.30
2012,10,22,16,45,7.30
2012,10,22,16,46,7.30
2012,10,22,16,47,7.30
2012,10,22,16,48,7.30
2012,10,22,16,49,7.30
2012,10,22,16,50,7.30
2012,10,22,16,51,7.30
2012,10,22,16,52,7.30
2012,10,22,16,53,7.30
2012,10,22,16,54,7.30
2012,10,22,16,55,7.30
2012,10,22,16,56,7.30
2012,10,22,16,57,7.30
2012,10,22,16,58,7.30
2012,10,22,16,59,7.30
2012,10,22,17,00,7.30
2012,10,22,17,01,7.30
2012,10,22,17,02,7.30
2012,10,22,17,03,7.30
2012,10,22,17,04,7.30
2012,10,22,17,05,7.30
2012,10,22,17,06,7.30
2012,10,22,17,07,7.30
2012,10,22,17,08,7.30
2012,10,22,17,09,7.30
2012,10,22,17,10,7.30
2012,10,22,17,11,7.30
2012,10,22,17,12,7.30
2012,10,22,17,13,7.30
2012,10,22,17,14,7.30
2012,10,22,17,15,7.30
2012,10,22,17,16,7.30
2012,10,22,17,17,7.30
2012,10,22,17,18,7.30
2012,10,22,17,19,7.30
2012,10,22,17,20,7.30
2012,10,22,17,21,7.20
2012,10,22,17,22,7.20
2012,10,22,17,23,7.20
2012,10,22,17,24,7.20
2012,10,22,17,25,7.20
2012,10,22,17,26,7.20
2012,10,22,17,27,7.20
2012,10,22,17,28,7.20
2012,10,22,17,29,7.20
2012,10,22,17,30,7.20
2012,10,22,17,31,7.10
2012,10,22,17,32,7.10
2012,10,22,17,33,7.10
2012,10,22,17,34,7.10
2012,10,22,17,35,7.10
2012,10,22,17,36,7.10
2012,10,22,17,37,7.10
2012,10,22,17,38,7.10
2012,10,22,17,39,7.10
2012,10,22,17,40,7.10
2012,10,22,17,41,7.10
2012,10,22,17,42,7.00
2012,10,22,17,43,7.00
2012,10,22,17,44,7.00
2012,10,22,17,45,7.00
2012,10,22,17,46,7.00
2012,10,22,17,47,7.00
2012,10,22,17,48,7.00
2012,10,22,17,49,7.00
2012,10,22,17,50,7.00
2012,10,22,17,51,6.90
2012,10,22,17,52,6.90
2012,10,22,17,53,6.90
2012,10,22,17,54,6.90
2012,10,22,17,55,6.80
2012,10,22,17,56,6.80
2012,10,22,17,57,6.80
2012,10,22,17,58,6.80
2012,10,22,17,59,6.80
2012,10,22,18,00,6.80
2012,10,22,18,01,6.80
2012,10,22,18,02,6.80
2012,10,22,18,03,6.80
2012,10,22,18,04,6.80
2012,10,22,18,05,6.80
2012,10,22,18,06,6.80
2012,10,22,18,07,6.80
2012,10,22,18,08,6.80
2012,10,22,18,09,6.80
2012,10,22,18,10,6.80
2012,10,22,18,11,6.80
2012,10,22,18,12,6.80
2012,10,22,18,13,6.80
2012,10,22,18,14,6.80
2012,10,22,18,15,6.80
2012,10,22,18,16,6.80
2012,10,22,18,17,6.70
2012,10,22,18,18,6.70
2012,10,22,18,19,6.70
2012,10,22,18,20,6.70
2012,10,22,18,21,6.70
2012,10,22,18,22,6.70
2012,10,22,18,23,6.70
2012,10,22,18,24,6.70
2012,10,22,18,25,6.70
2012,10,22,18,26,6.70
2012,10,22,18,27,6.70
2012,10,22,18,28,6.70
2012,10,22,18,29,6.70
2012,10,22,18,30,6.70
2012,10,22,18,31,6.70
2012,10,22,18,32,6.70
2012,10,22,18,33,6.70
2012,10,22,18,34,6.70
2012,10,22,18,35,6.70
2012,10,22,18,36,6.70
2012,10,22,18,37,6.70
2012,10,22,18,38,6.70
2012,10,22,18,39,6.70
2012,10,22,18,40,6.70
2012,10,22,18,41,6.70
2012,10,22,18,42,6.60
2012,10,22,18,43,6.60
2012,10,22,18,44,6.60
2012,10,22,18,45,6.60
2012,10,22,18,46,6.60
2012,10,22,18,47,6.60
2012,10,22,18,48,6.60
2012,10,22,18,49,6.60
2012,10,22,18,50,6.60
2012,10,22,18,51,6.60
2012,10,22,18,52,6.70
2012,10,22,18,53,6.70
2012,10,22,18,54,6.70
2012,10,22,18,55,6.70
2012,10,22,18,56,6.70
2012,10,22,18,57,6.70
2012,10,22,18,58,6.70
2012,10,22,18,59,6.70
2012,10,22,19,00,6.70
2012,10,22,19,01,6.70
2012,10,22,19,02,6.70
2012,10,22,19,03,6.70
2012,10,22,19,04,6.60
2012,10,22,19,05,6.60
2012,10,22,19,06,6.60
2012,10,22,19,07,6.60
2012,10,22,19,08,6.60
2012,10,22,19,09,6.60
2012,10,22,19,10,6.60
2012,10,22,19,11,6.60
2012,10,22,19,12,6.60
2012,10,22,19,13,6.60
2012,10,22,19,14,6.60
2012,10,22,19,15,6.60
2012,10,22,19,16,6.60
2012,10,22,19,17,6.60
2012,10,22,19,18,6.60
2012,10,22,19,19,6.60
2012,10,22,19,20,6.60
2012,10,22,19,21,6.60
2012,10,22,19,22,6.60
2012,10,22,19,23,6.60
2012,10,22,19,24,6.60
2012,10,22,19,25,6.60
2012,10,22,19,26,6.60
2012,10,22,19,27,6.60
2012,10,22,19,28,6.50
2012,10,22,19,29,6.40
2012,10,22,19,30,6.40
2012,10,22,19,31,6.40
2012,10,22,19,32,6.40
2012,10,22,19,33,6.60
2012,10,22,19,34,6.60
2012,10,22,19,35,6.60
2012,10,22,19,36,6.60
2012,10,22,19,37,6.60
2012,10,22,19,38,6.60
2012,10,22,19,39,6.60
2012,10,22,19,40,6.60
2012,10,22,19,41,6.60
2012,10,22,19,42,6.60
2012,10,22,19,43,6.60
2012,10,22,19,44,6.60
2012,10,22,19,45,6.60
2012,10,22,19,46,6.60
2012,10,22,19,47,6.60
2012,10,22,19,48,6.60
2012,10,22,19,49,6.60
2012,10,22,19,50,6.60
2012,10,22,19,51,6.40
2012,10,22,19,52,6.40
2012,10,22,19,53,6.40
2012,10,22,19,54,6.50
2012,10,22,19,55,6.60
2012,10,22,19,56,6.60
2012,10,22,19,57,6.60
2012,10,22,19,58,6.60
2012,10,22,19,59,6.60
2012,10,22,20,00,6.60
2012,10,22,20,01,6.60
2012,10,22,20,02,6.60
2012,10,22,20,03,6.60
2012,10,22,20,04,6.60
2012,10,22,20,05,6.60
2012,10,22,20,06,6.60
2012,10,22,20,07,6.60
2012,10,22,20,08,6.60
2012,10,22,20,09,6.60
2012,10,22,20,10,6.60
2012,10,22,20,11,6.60
2012,10,22,20,12,6.60
2012,10,22,20,13,6.60
2012,10,22,20,14,6.60
2012,10,22,20,15,6.60
2012,10,22,20,16,6.60
2012,10,22,20,17,6.60
2012,10,22,20,18,6.60
2012,10,22,20,19,6.60
2012,10,22,20,20,6.60
2012,10,22,20,21,6.60
2012,10,22,20,22,6.60
2012,10,22,20,23,6.70
2012,10,22,20,24,6.70
2012,10,22,20,25,6.70
2012,10,22,20,26,6.70
2012,10,22,20,27,6.70
2012,10,22,20,28,6.80
2012,10,22,20,29,6.80
2012,10,22,20,30,6.80
2012,10,22,20,31,6.80
2012,10,22,20,32,6.70
2012,10,22,20,33,6.70
2012,10,22,20,34,6.70
2012,10,22,20,35,6.80
2012,10,22,20,36,6.80
2012,10,22,20,37,6.80
2012,10,22,20,38,6.70
2012,10,22,20,39,6.70
2012,10,22,20,40,6.80
2012,10,22,20,41,6.80
2012,10,22,20,42,6.80
2012,10,22,20,43,6.80
2012,10,22,20,44,6.80
2012,10,22,20,45,6.80
2012,10,22,20,46,6.80
2012,10,22,20,47,6.80
2012,10,22,20,48,6.80
2012,10,22,20,49,6.80
2012,10,22,20,50,6.80
2012,10,22,20,51,6.80
2012,10,22,20,52,6.80
2012,10,22,20,53,6.80
2012,10,22,20,54,6.80
2012,10,22,20,55,6.80
2012,10,22,20,56,6.80
2012,10,22,20,57,6.80
2012,10,22,20,58,6.80
2012,10,22,20,59,6.80
2012,10,22,21,00,6.80
2012,10,22,21,01,6.80
2012,10,22,21,02,6.70
2012,10,22,21,03,6.80
2012,10,22,21,04,6.80
2012,10,22,21,05,6.80
2012,10,22,21,06,6.80
2012,10,22,21,07,6.80
2012,10,22,21,08,6.80
2012,10,22,21,09,6.80
2012,10,22,21,10,6.80
2012,10,22,21,11,6.80
2012,10,22,21,12,6.80
2012,10,22,21,13,6.80
2012,10,22,21,14,6.80
2012,10,22,21,15,6.70
2012,10,22,21,16,6.70
2012,10,22,21,17,6.70
2012,10,22,21,18,6.70
2012,10,22,21,19,6.70
2012,10,22,21,20,6.70
2012,10,22,21,21,6.70
2012,10,22,21,22,6.70
2012,10,22,21,23,6.60
2012,10,22,21,24,6.60
2012,10,22,21,25,6.60
2012,10,22,21,26,6.60
2012,10,22,21,27,6.60
2012,10,22,21,28,6.60
2012,10,22,21,29,6.60
2012,10,22,21,30,6.60
2012,10,22,21,31,6.60
2012,10,22,21,32,6.60
2012,10,22,21,33,6.60
2012,10,22,21,34,6.60
2012,10,22,21,35,6.60
2012,10,22,21,36,6.60
2012,10,22,21,37,6.60
2012,10,22,21,38,6.60
2012,10,22,21,39,6.60
2012,10,22,21,40,6.60
2012,10,22,21,41,6.60
2012,10,22,21,42,6.60
2012,10,22,21,43,6.60
2012,10,22,21,44,6.60
2012,10,22,21,45,6.60
2012,10,22,21,46,6.60
2012,10,22,21,47,6.60
2012,10,22,21,48,6.60
2012,10,22,21,49,6.60
2012,10,22,21,50,6.60
2012,10,22,21,51,6.60
2012,10,22,21,52,6.50
2012,10,22,21,53,6.40
2012,10,22,21,54,6.40
2012,10,22,21,55,6.40
2012,10,22,21,56,6.40
2012,10,22,21,57,6.40
2012,10,22,21,58,6.40
2012,10,22,21,59,6.40
2012,10,22,22,00,6.40
2012,10,22,22,01,6.40
2012,10,22,22,02,6.40
2012,10,22,22,03,6.40
2012,10,22,22,04,6.40
2012,10,22,22,05,6.40
2012,10,22,22,06,6.40
2012,10,22,22,07,6.40
2012,10,22,22,08,6.40
2012,10,22,22,09,6.40
2012,10,22,22,10,6.40
2012,10,22,22,11,6.40
2012,10,22,22,12,6.40
2012,10,22,22,13,6.40
2012,10,22,22,14,6.40
2012,10,22,22,15,6.40
2012,10,22,22,16,6.40
2012,10,22,22,17,6.40
2012,10,22,22,18,6.40
2012,10,22,22,19,6.40
2012,10,22,22,20,6.40
2012,10,22,22,21,6.40
2012,10,22,22,22,6.40
2012,10,22,22,23,6.40
2012,10,22,22,24,6.40
2012,10,22,22,25,6.40
2012,10,22,22,26,6.40
2012,10,22,22,27,6.40
2012,10,22,22,28,6.40
2012,10,22,22,29,6.40
2012,10,22,22,30,6.40
2012,10,22,22,31,6.40
2012,10,22,22,32,6.40
2012,10,22,22,33,6.40
2012,10,22,22,34,6.40
2012,10,22,22,35,6.40
2012,10,22,22,36,6.40